{"data":{"norad_id":59120,"epoch":"2026-09-22T03:28:54.308928Z","epoch_age_seconds":115897,"freshness":"FRESH","line1":"1 59120U 24043Y   26265.14507302  .00006998  00000+0  14418-3 0  9995","line2":"2 59120  97.5656  57.7831 0006592 202.0485 158.0481 15.46233890142769","mean_motion":15.4623389,"eccentricity":0.0006592,"inclination_deg":97.5656,"raan_deg":57.7831,"arg_perigee_deg":202.0485,"mean_anomaly_deg":158.0481,"bstar":0.00014418,"rev_number":14276,"period_min":93.129507076061,"perigee_km":423.2684978101,"apogee_km":432.24138574614,"semimajor_km":6805.8919417781,"source":"CELESTRAK","updated_at":"2026-09-23T09:00:19.176861Z"}}